STARLINK-1626 (46167 NORAD) Tracking and Keplerian Element Data

This shows tracking and keplerian element data for the satellite.

Feedback or suggestion? Click here.




ElementValue
Catalog46167
NameSTARLINK-1626
Epoch Orbit2315
Epoch Day17.64313462
Epoch Year2021
RAAN102.982
Inclination53.0597
Eccentricity0.0001331
Argument of Perigee64.5386
Mean Anonmoly295.574
Mean Motion15.06396142
Decay Rate-9.95E-06
L11 46167U 20057BC 21017.64313462 -.00000995 00000-0 -47927-4 0 9996
L22 46167 53.0597 102.9820 0001331 64.5386 295.5740 15.06396142 23157

Live tracking and technical data element details for STARLINK-1626 (NORAD 46167). STARLINK-1626 can be tracked NOW for your location showing map with azimuth and elevation plus other details from your city location.

Track the satellite on the map from your city or location and see movement details for azimuth, elevation, latitude, longitude, range, height, and movement on the map or in text.







IsCatalogInMostPopularTable: catalog: 46167, numindb: 34
Update: records affected: 1



GetName: 46167 STARLINK-1626

Hit Count: updated at: Tue, 19 Jan 2021 01:50:07 GMT